Location: Akdamlar
(36.8729°N, 30.5187°E)
Time: 19:29:04
(UTC+00:00)

SJ-6B - Pass Details

Date: 18 September 2020
Orbit: 511 x 580 km, 97.6° (Epoch: 26 October)

Event Time Altitude Azimuth Distance (km) Brightness Sun altitude
Exits shadow 17:45:58 56° 32° (NNE) 611 2.9 -21.5°
Drops below altitude 10° 17:49:09 10° 355° (N) 1,742 5.7 -22.1°
Sets 17:51:16 0° 352° (N) 2,637 6.7 -22.5°
